Ondangwa Airport

Jump to: basic info | weather | frequencies | runways | comments

Related pages: nearby airports | nearby navaids | notams | map

Basic information (top)

Codes: OND FYOA
Location: lon -17.878201, lat 15.952600, elev 3,599 ft / 1,097 m msl
Status: medium_airport
Scheduled airline service: yes
Links: Wikipedia Mobile

Weather (top)

Current conditions (rec'd 2014/11/26 04:00Z):

FYOA 260400Z AUTO 26002KT //// // ////// 22/17 Q1015

Airport forecast (rec'd 2014/11/15 15:19Z):

TAF FYOA 151400Z 1515/1524 09010KT 9999 SCT040 
      BECMG 1517/1519 NSC

Frequencies (top)

Verify before use: may be inaccurate or out of date.

APP: 125.6 MHz (APP)
TWR: 119.7 MHz (TWR)

Runways (top)

08/26: 9,800 x 98 ft (2,987 x 30 m) — paved — lighted

16/34: 4,423 x 98 ft (1,348 x 30 m) — gravel — not lighted

Latest comments (top)

No comments yet for Ondangwa Airport

More... (top)

See also NOTAMs and nearby airports and navaids, or visit the Ondangwa Airport page at the main OurAirports website..